Location: Joplin, MO
(37.0842°N, 94.5133°W)
Time: 22:14:33
(UTC+02:00)

Transit 2A Rocket - Pass Details

Date: 03 April 2023
Orbit: 584 x 914 km, 66.7° (Epoch: 06 June)

Event Time Altitude Azimuth Distance (km) Brightness Sun altitude
Rises 18:57:14 0° 262° (W) 3,328 8.1 52.9°
Reaches altitude 10° 19:00:55 10° 288° (WNW) 2,467 7.5 53.4°
Maximum altitude 19:03:51 14° 318° (NW) 2,235 7.2 53.7°
Drops below altitude 10° 19:06:52 10° 349° (N) 2,556 7.5 54.0°
Sets 19:10:50 0° 14° (NNE) 3,535 8.2 54.5°
